�N����,�����b,���ԉ��x,�t���O,���Ԏ��x,�t���O,��󒲎�,�t���O,����,�t���O,�����W,�t���O,���։��x,�t���O,���֎��x,�t���O
2004/8/1,0:00:00,27.5,0,53,0,29.8,0,27.2,0,29.1,0,27,0,47.9,0
2004/8/1,0:15:00,27.6,0,52.9,0,29.7,0,27.3,0,29.1,0,27.1,0,48.1,0
2004/8/1,0:30:00,28.1,0,53,0,29.6,0,27.3,0,29.3,0,27.4,0,49.4,0
2004/8/1,0:45:00,28.3,0,53.5,0,29.6,0,27.3,0,29.4,0,27.7,0,50.1,0
2004/8/1,1:00:00,28.5,0,54,0,29.5,0,27.3,0,29.5,0,27.9,0,50.6,0
2004/8/1,1:15:00,28.6,0,54.5,0,29.5,0,27.4,0,29.6,0,28.2,0,50.9,0
2004/8/1,1:30:00,28.7,0,54.9,0,29.4,0,27.4,0,29.7,0,28.3,0,51.3,0
2004/8/1,1:45:00,28.8,0,55.3,0,29.4,0,27.5,0,29.8,0,28.5,0,51.8,0
2004/8/1,2:00:00,28.9,0,55.9,0,29.3,0,27.5,0,29.8,0,28.6,0,52.2,0
2004/8/1,2:15:00,29,0,56.3,0,29.3,0,27.5,0,29.9,0,28.8,0,52.4,0
2004/8/1,2:30:00,29,0,56.6,0,29.2,0,27.5,0,29.9,0,28.9,0,52.6,0
2004/8/1,2:45:00,29.1,0,56.8,0,29.2,0,27.6,0,30,0,29,0,52.8,0
2004/8/1,3:00:00,29.1,0,56.9,0,29.2,0,27.6,0,30,0,29.1,0,52.8,0
2004/8/1,3:15:00,29.2,0,57,0,29.1,0,27.6,0,30,0,29.2,0,52.8,0
2004/8/1,3:30:00,29.2,0,57,0,29.1,0,27.6,0,30,0,29.3,0,52.8,0
2004/8/1,3:45:00,29.3,0,57.1,0,29,0,27.6,0,30,0,29.3,0,52.8,0
2004/8/1,4:00:00,29.3,0,57.3,0,29,0,27.7,0,30,0,29.3,0,52.9,0
2004/8/1,4:15:00,29.3,0,57.3,0,28.9,0,27.7,0,30,0,29.4,0,52.9,0
2004/8/1,4:30:00,29.3,0,57.2,0,28.9,0,27.7,0,30,0,29.4,0,52.8,0
2004/8/1,4:45:00,29.3,0,57.3,0,28.8,0,27.7,0,30,0,29.4,0,52.8,0
2004/8/1,5:00:00,29.4,0,57.2,0,28.8,0,27.7,0,30,0,29.5,0,52.8,0
2004/8/1,5:15:00,29.4,0,57.2,0,28.8,0,27.8,0,30,0,29.5,0,52.8,0
2004/8/1,5:30:00,29.4,0,57.2,0,28.7,0,27.8,0,29.9,0,29.5,0,52.8,0
2004/8/1,5:45:00,29.4,0,57.2,0,28.7,0,27.8,0,30,0,29.6,0,52.7,0
2004/8/1,6:00:00,29.4,0,57.2,0,28.7,0,27.8,0,30,0,29.6,0,52.8,0
2004/8/1,6:15:00,29.5,0,57.4,0,28.7,0,27.8,0,30,0,29.6,0,52.8,0
2004/8/1,6:30:00,29.5,0,57.5,0,28.7,0,27.8,0,30.1,0,29.6,0,52.9,0
2004/8/1,6:45:00,29.5,0,57.8,0,28.7,0,27.8,0,30.2,0,29.7,0,53.1,0
2004/8/1,7:00:00,29.6,0,58.3,0,28.8,0,27.9,0,30.2,0,29.8,0,53.7,0
2004/8/1,7:15:00,29.6,0,58.2,0,28.8,0,27.9,0,30,0,29.8,0,53.5,0
2004/8/1,7:30:00,29.6,0,57.6,0,28.9,0,27.9,0,29.9,0,29.9,0,53,0
2004/8/1,7:45:00,29.6,0,58.1,0,28.9,0,27.9,0,29.9,0,29.9,0,53.1,0
2004/8/1,8:00:00,29.7,0,60,0,28.9,0,27.9,0,29.9,0,29.9,0,54,0
2004/8/1,8:15:00,29.8,0,60.4,0,29,0,27.9,0,30.1,0,30,0,54.9,0
2004/8/1,8:30:00,29.9,0,59.9,0,29.2,0,27.1,0,30.3,0,30.1,0,54.2,0
2004/8/1,8:45:00,29.1,0,55.6,0,29.3,0,27.1,0,30.1,0,29.7,0,50,0
2004/8/1,9:00:00,28.9,0,52.4,0,29.5,0,27.2,0,29.8,0,29.3,0,47.4,0
2004/8/1,9:15:00,28.6,0,50.9,0,29.6,0,27.2,0,29.7,0,28.9,0,46.2,0
2004/8/1,9:30:00,28.6,0,49.5,0,29.8,0,27.2,0,29.6,0,28.6,0,45.3,0
2004/8/1,9:45:00,28.3,0,48.3,0,29.9,0,27.4,0,29.4,0,28.3,0,44.6,0
2004/8/1,10:00:00,28.2,0,47.5,0,29.9,0,27.4,0,29.3,0,28.1,0,43.8,0
2004/8/1,10:15:00,28.2,0,47.2,0,30,0,27.4,0,29.2,0,27.9,0,43.8,0
2004/8/1,10:30:00,28.1,0,46.9,0,30.1,0,27.4,0,29.1,0,27.8,0,43.6,0
2004/8/1,10:45:00,28,0,46,0,30.2,0,27.5,0,29,0,27.7,0,43.1,0
2004/8/1,11:00:00,28,0,46.3,0,30.3,0,27.5,0,29,0,27.6,0,43.1,0
2004/8/1,11:15:00,27.9,0,46.5,0,30.4,0,27.5,0,29,0,27.5,0,43.2,0
2004/8/1,11:30:00,27.9,0,46.6,0,30.5,0,27.5,0,29,0,27.4,0,43.3,0
2004/8/1,11:45:00,27.8,0,47,0,30.7,0,27.5,0,29.1,0,27.4,0,43.5,0
2004/8/1,12:00:00,27.7,0,46.3,0,30.7,0,27.6,0,29.1,0,27.3,0,43.3,0
2004/8/1,12:15:00,27.7,0,46.2,0,30.8,0,27.6,0,29.1,0,27.3,0,43.2,0
2004/8/1,12:30:00,27.7,0,46,0,31,0,27.6,0,29.1,0,27.3,0,42.9,0
2004/8/1,12:45:00,27.7,0,46.6,0,31,0,27.6,0,29.1,0,27.3,0,43.3,0
2004/8/1,13:00:00,27.8,0,48.4,0,31.1,0,27.7,0,29.2,0,27.3,0,44.4,0
2004/8/1,13:15:00,27.7,0,47.5,0,31.2,0,27.7,0,29.2,0,27.3,0,43.8,0
2004/8/1,13:30:00,27.8,0,47.1,0,31.3,0,27.7,0,29.2,0,27.3,0,43.8,0
2004/8/1,13:45:00,27.8,0,46.7,0,31.3,0,27.8,0,29.3,0,27.3,0,43.8,0
2004/8/1,14:00:00,27.8,0,46.3,0,31.4,0,27.8,0,29.3,0,27.4,0,43.4,0
2004/8/1,14:15:00,27.8,0,46.3,0,31.4,0,27.8,0,29.5,0,27.4,0,43.3,0
2004/8/1,14:30:00,27.8,0,46.3,0,31.5,0,27.9,0,29.6,0,27.4,0,43.1,0
2004/8/1,14:45:00,27.7,0,46.1,0,31.6,0,27.9,0,29.6,0,27.4,0,42.9,0
2004/8/1,15:00:00,27.7,0,46.3,0,31.6,0,28,0,29.6,0,27.4,0,42.9,0
2004/8/1,15:15:00,27.7,0,47.7,0,31.7,0,28,0,29.7,0,27.4,0,43.5,0
2004/8/1,15:30:00,27.8,0,48.4,0,31.8,0,28,0,29.8,0,27.5,0,44,0
2004/8/1,15:45:00,27.7,0,48.7,0,31.7,0,28.1,0,29.5,0,27.5,0,44.1,0
2004/8/1,16:00:00,27.7,0,48.8,0,31.6,0,28.1,0,29.3,0,27.6,0,44.2,0
2004/8/1,16:15:00,27.7,0,48.6,0,31.6,0,28.1,0,29.2,0,27.6,0,44.1,0
2004/8/1,16:30:00,27.7,0,48.7,0,31.6,0,28.1,0,29.4,0,27.6,0,44.1,0
2004/8/1,16:45:00,27.6,0,49.2,0,31.5,0,28.1,0,29.2,0,27.5,0,43.8,0
2004/8/1,17:00:00,27.5,0,48.4,0,31.4,0,28.1,0,29.1,0,27.4,0,43.6,0
2004/8/1,17:15:00,27.5,0,47.4,0,31.4,0,28.2,0,29,0,27.4,0,43.3,0
2004/8/1,17:30:00,27.4,0,46.7,0,31.4,0,28.2,0,29,0,27.3,0,42.8,0
2004/8/1,17:45:00,27.4,0,46.1,0,31.4,0,28.3,0,28.9,0,27.3,0,42.4,0
2004/8/1,18:00:00,27.3,0,45.8,0,31.4,0,28.3,0,28.9,0,27.1,0,42.1,0
2004/8/1,18:15:00,27.2,0,45.3,0,31.4,0,28.3,0,28.8,0,27.1,0,41.8,0
2004/8/1,18:30:00,27.1,0,45.1,0,31.4,0,28.4,0,28.8,0,27,0,41.6,0
2004/8/1,18:45:00,27,0,45.3,0,31.4,0,28.3,0,28.7,0,26.9,0,41.6,0
2004/8/1,19:00:00,27.1,0,46.6,0,31.3,0,28.3,0,28.7,0,26.9,0,42.2,0
2004/8/1,19:15:00,27.2,0,48.3,0,31.3,0,28.4,0,28.9,0,26.9,0,42.5,0
2004/8/1,19:30:00,27.2,0,49.6,0,31.3,0,28.4,0,29.1,0,26.9,0,43.6,0
2004/8/1,19:45:00,27.1,0,48.1,0,31.2,0,28.4,0,29,0,26.9,0,43.4,0
2004/8/1,20:00:00,27,0,47.1,0,31.1,0,28.5,0,28.9,0,26.9,0,42.8,0
2004/8/1,20:15:00,26.9,0,47.1,0,31.1,0,28.5,0,28.8,0,26.8,0,42.4,0
2004/8/1,20:30:00,26.8,0,47.6,0,31,0,28.5,0,28.7,0,26.8,0,42.6,0
2004/8/1,20:45:00,26.7,0,47.2,0,31,0,28.6,0,28.5,0,26.8,0,42.3,0
2004/8/1,21:00:00,26.7,0,48.9,0,30.9,0,28.6,0,28.4,0,26.6,0,42.9,0
2004/8/1,21:15:00,27.1,0,53.5,0,30.9,0,28.6,0,28.5,0,26.8,0,46.9,0
2004/8/1,21:30:00,27.1,0,53.7,0,30.8,0,28.7,0,28.6,0,26.9,0,47.3,0
2004/8/1,21:45:00,27.1,0,53.7,0,30.7,0,28.7,0,28.6,0,26.9,0,47.6,0
2004/8/1,22:00:00,27.1,0,53.9,0,30.6,0,28.7,0,28.7,0,26.9,0,47.8,0
2004/8/1,22:15:00,27.1,0,53.9,0,30.5,0,28.3,0,28.7,0,26.9,0,47.9,0
2004/8/1,22:30:00,27.3,0,57.2,0,30.4,0,28.3,0,28.6,0,26.9,0,50.9,0
2004/8/1,22:45:00,27.2,0,56.2,0,30.3,0,28.3,0,28.7,0,27,0,50.4,0
2004/8/1,23:00:00,27.3,0,58.3,0,30.3,0,28.4,0,28.7,0,27,0,51.9,0
2004/8/1,23:15:00,27.3,0,57.6,0,30.2,0,28.4,0,28.7,0,27.1,0,51.4,0
2004/8/1,23:30:00,27.2,0,57.4,0,30.1,0,28.4,0,28.7,0,27,0,51.7,0
2004/8/1,23:45:00,27.7,0,58.6,0,30,0,28,0,28.8,0,27.3,0,53.9,0
2004/8/2,0:00:00,27.9,0,58.9,0,30,0,28,0,29,0,27.6,0,54.5,0
2004/8/2,0:15:00,28.1,0,59.5,0,29.9,0,28.1,0,29.1,0,27.8,0,55.1,0
2004/8/2,0:30:00,28.2,0,59.5,0,29.9,0,28.1,0,29.2,0,28,0,55.1,0
2004/8/2,0:45:00,28.3,0,59.4,0,29.8,0,28.1,0,29.3,0,28.2,0,54.9,0
2004/8/2,1:00:00,28.4,0,59.4,0,29.7,0,28.1,0,29.3,0,28.3,0,54.8,0
2004/8/2,1:15:00,28.5,0,59.5,0,29.7,0,28.1,0,29.3,0,28.4,0,54.7,0
2004/8/2,1:30:00,28.5,0,59.5,0,29.7,0,28.2,0,29.3,0,28.6,0,54.6,0
2004/8/2,1:45:00,28.6,0,59.6,0,29.6,0,28.2,0,29.4,0,28.7,0,54.6,0
2004/8/2,2:00:00,28.7,0,59.5,0,29.6,0,28.2,0,29.4,0,28.8,0,54.6,0
2004/8/2,2:15:00,28.7,0,59.4,0,29.5,0,28.3,0,29.5,0,28.9,0,54.4,0
2004/8/2,2:30:00,28.8,0,59.3,0,29.4,0,28.3,0,29.6,0,28.9,0,54.3,0
2004/8/2,2:45:00,28.8,0,59.1,0,29.3,0,28.3,0,29.6,0,29,0,54.1,0
2004/8/2,3:00:00,28.9,0,58.9,0,29.3,0,28.3,0,29.6,0,29.1,0,53.9,0
2004/8/2,3:15:00,28.9,0,58.8,0,29.2,0,28.3,0,29.5,0,29.1,0,53.8,0
2004/8/2,3:30:00,28.9,0,58.6,0,29.2,0,28.3,0,29.5,0,29.1,0,53.7,0
2004/8/2,3:45:00,28.9,0,58.5,0,29.2,0,28.3,0,29.5,0,29.1,0,53.5,0
2004/8/2,4:00:00,28.9,0,58.2,0,29.1,0,28.4,0,29.4,0,29.2,0,53.3,0
2004/8/2,4:15:00,28.9,0,58.1,0,29.1,0,28.4,0,29.4,0,29.2,0,53.2,0
2004/8/2,4:30:00,28.9,0,57.9,0,29,0,28.4,0,29.4,0,29.2,0,53.1,0
2004/8/2,4:45:00,28.9,0,57.8,0,29,0,28.4,0,29.4,0,29.2,0,52.9,0
2004/8/2,5:00:00,28.9,0,57.7,0,28.9,0,28.4,0,29.3,0,29.2,0,52.8,0
2004/8/2,5:15:00,28.9,0,57.6,0,28.5,0,28.4,0,29.3,0,29.3,0,52.7,0
2004/8/2,5:30:00,28.9,0,57.6,0,28.5,0,28.4,0,29.3,0,29.3,0,52.7,0
2004/8/2,5:45:00,28.9,0,57.5,0,28.6,0,27.8,0,29.3,0,29.3,0,52.7,0
2004/8/2,6:00:00,28.9,0,57,0,28.6,0,27.8,0,29.2,0,29.3,0,52.8,0
2004/8/2,6:15:00,28.9,0,57.3,0,28.6,0,27.8,0,29.2,0,29.3,0,52.6,0
2004/8/2,6:30:00,28.9,0,57.2,0,28.6,0,27.8,0,29.2,0,29.3,0,52.6,0
2004/8/2,6:45:00,28.9,0,57.5,0,28.5,0,27.7,0,29.2,0,29.3,0,52.5,0
2004/8/2,7:00:00,28.9,0,58.4,0,28.4,0,27.7,0,29.2,0,29.3,0,52.8,0
2004/8/2,7:15:00,29,0,59.3,0,28.4,0,27.7,0,29.3,0,29.3,0,53.5,0
2004/8/2,7:30:00,29.1,0,58.8,0,28.5,0,27.7,0,29.6,0,29.4,0,54.2,0
2004/8/2,7:45:00,29.2,0,58,0,28.5,0,27.7,0,29.8,0,29.4,0,53.6,0
2004/8/2,8:00:00,29.3,0,57.1,0,28.5,0,27.7,0,30,0,29.5,0,52.8,0
2004/8/2,8:15:00,29.4,0,56.8,0,28.6,0,27.7,0,30.2,0,29.6,0,52.5,0
2004/8/2,8:30:00,29.5,0,56.5,0,28.9,0,27.8,0,30.2,0,29.7,0,52.2,0
2004/8/2,8:45:00,29.6,0,56.4,0,29,0,27.8,0,30.3,0,29.7,0,50.7,0
2004/8/2,9:00:00,29.3,0,53,0,29,0,27.6,0,30.1,0,29.3,0,46.9,0
2004/8/2,9:15:00,29.1,0,50.6,0,29.1,0,27.5,0,29.8,0,28.8,0,45.7,0
2004/8/2,9:30:00,29,0,49.3,0,29.2,0,27.6,0,29.6,0,28.4,0,45.1,0
2004/8/2,9:45:00,29,0,48.4,0,29.2,0,27.6,0,29.6,0,28.2,0,44.8,0
2004/8/2,10:00:00,29,0,47.3,0,29.2,0,27.6,0,29.5,0,28,0,44.3,0
2004/8/2,10:15:00,29.4,0,46.6,0,30.4,0,27.5,0,30.1,0,29.4,0,44.4,0
2004/8/2,10:30:00,28.8,0,48.4,0,29.7,0,27.5,0,30.7,0,30.7,0,44.4,0
2004/8/2,10:45:00,28.7,0,48.2,0,29.5,0,26.6,0,30,0,29.1,0,43.1,0
2004/8/2,11:00:00,28.6,0,48,0,29.4,0,27.3,0,29.8,0,28.3,0,43.6,0
2004/8/2,11:15:00,28.5,0,47.9,0,29.3,0,27.6,0,29.8,0,27.9,0,44.1,0
2004/8/2,11:30:00,28.4,0,48.2,0,29.3,0,27.4,0,29.8,0,27.8,0,43.6,0
2004/8/2,11:45:00,28.2,0,48,0,29.3,0,25.8,0,29.9,0,27.6,0,44.1,0
2004/8/2,12:00:00,28.4,0,46.8,0,29.3,0,26.7,0,29.8,0,27.4,0,43.7,0
2004/8/2,12:15:00,28.4,0,46,0,29.3,0,27.5,0,29.8,0,27.3,0,43.4,0
2004/8/2,12:30:00,28.4,0,48.6,0,29.4,0,27.5,0,30.2,0,27.3,0,45.4,0
2004/8/2,12:45:00,28.6,0,48.3,0,29.5,0,27.4,0,29.8,0,27.3,0,45.4,0
2004/8/2,13:00:00,28.6,0,48.7,0,29.5,0,27.4,0,29.4,0,27.3,0,45.8,0
2004/8/2,13:15:00,28.1,0,49.4,0,29.6,0,25.6,0,29.3,0,27.1,0,45.9,0
2004/8/2,13:30:00,28,0,48.4,0,29.6,0,27.2,0,29.3,0,27.1,0,45.7,0
2004/8/2,13:45:00,28,0,48.2,0,29.6,0,27.3,0,29.5,0,27,0,44.8,0
2004/8/2,14:00:00,28.1,0,47,0,29.8,0,27.3,0,29.4,0,27,0,44.6,0
2004/8/2,14:15:00,28,0,46.6,0,29.9,0,27.3,0,29.3,0,26.9,0,44.1,0
2004/8/2,14:30:00,27.9,0,46.2,0,30,0,27.3,0,29.2,0,26.9,0,43.8,0
2004/8/2,14:45:00,27.9,0,45.8,0,30.2,0,25.4,0,29.1,0,26.8,0,43.6,0
2004/8/2,15:00:00,27.8,0,45.7,0,30.3,0,26.4,0,29.1,0,26.8,0,43.4,0
2004/8/2,15:15:00,27.8,0,45,0,30.4,0,27.4,0,29.3,0,26.7,0,42.8,0
2004/8/2,15:30:00,27.7,0,45,0,30.4,0,27.5,0,29.5,0,26.6,0,42.5,0
2004/8/2,15:45:00,27.6,0,44.5,0,30.4,0,27.5,0,29.5,0,26.6,0,42.1,0
2004/8/2,16:00:00,27.6,0,44.1,0,30.5,0,27.5,0,29.5,0,26.5,0,42.1,0
2004/8/2,16:15:00,28.5,0,45.2,0,30.4,0,28.2,0,29.6,0,26.8,0,44.5,0
2004/8/2,16:30:00,28.8,0,46.5,0,30.4,0,28.2,0,29.7,0,27.3,0,45.9,0
2004/8/2,16:45:00,29.1,0,47.9,0,30.3,0,28.3,0,29.9,0,27.8,0,46.5,0
2004/8/2,17:00:00,29.3,0,49.4,0,30.3,0,28.3,0,30.1,0,28.4,0,46.4,0
2004/8/2,17:15:00,29.4,0,50.3,0,30.3,0,28.3,0,30.2,0,28.6,0,47.1,0
2004/8/2,17:30:00,29.6,0,50.7,0,30.3,0,28.3,0,30.3,0,28.8,0,47.7,0
2004/8/2,17:45:00,29.7,0,51,0,30.2,0,28.3,0,30.3,0,28.9,0,47.9,0
2004/8/2,18:00:00,29.8,0,51.9,0,30.2,0,27.9,0,31,0,29.1,0,48.6,0
2004/8/2,18:15:00,29.9,0,53.3,0,30.2,0,27.9,0,31.3,0,29.3,0,49.5,0
2004/8/2,18:30:00,28.8,0,52,0,30.2,0,27.9,0,31,0,29.1,0,46.4,0
2004/8/2,18:45:00,28.3,0,50.5,0,30.2,0,27.9,0,30.2,0,28.8,0,44.6,0
2004/8/2,19:00:00,28.6,0,49.4,0,30.1,0,28,0,29.8,0,28.4,0,44.1,0
2004/8/2,19:15:00,28.4,0,47.8,0,30.1,0,28,0,29.4,0,28.2,0,43.7,0
2004/8/2,19:30:00,27.9,0,47.8,0,30,0,28,0,29.2,0,27.9,0,43.1,0
2004/8/2,19:45:00,28.8,0,49,0,30,0,28.2,0,29.4,0,27.9,0,45.3,0
2004/8/2,20:00:00,29.1,0,50.3,0,30,0,28.3,0,29.8,0,28.2,0,47.3,0
2004/8/2,20:15:00,29.3,0,51.4,0,30,0,28.3,0,30,0,28.4,0,48.3,0
2004/8/2,20:30:00,29.4,0,51.8,0,30,0,28.3,0,30,0,28.6,0,49,0
2004/8/2,20:45:00,29.5,0,52.3,0,30,0,28.3,0,30.2,0,28.9,0,49.1,0
2004/8/2,21:00:00,29.6,0,52.6,0,30,0,28.3,0,30.3,0,29,0,49.2,0
2004/8/2,21:15:00,29.7,0,53.1,0,30,0,28.3,0,30.3,0,29.1,0,49.3,0
2004/8/2,21:30:00,29.8,0,53.7,0,30,0,28.4,0,30.3,0,29.2,0,49.5,0
2004/8/2,21:45:00,29.8,0,54.1,0,30,0,27.9,0,30.3,0,29.3,0,49.9,0
2004/8/2,22:00:00,29.9,0,55.8,0,30,0,27.9,0,30.3,0,29.4,0,50.5,0
2004/8/2,22:15:00,30.1,0,56.8,0,30,0,27.9,0,30.4,0,29.5,0,51.2,0
2004/8/2,22:30:00,30.2,0,57.2,0,30,0,28.1,0,30.5,0,29.6,0,51.6,0
2004/8/2,22:45:00,30.2,0,57.6,0,30,0,28.1,0,30.7,0,29.7,0,52.2,0
2004/8/2,23:00:00,30.3,0,57.9,0,30,0,28.1,0,30.8,0,29.8,0,52.4,0
2004/8/2,23:15:00,30.3,0,58.2,0,29.9,0,28.2,0,30.8,0,29.9,0,52.6,0
2004/8/2,23:30:00,30.3,0,58.3,0,29.9,0,28.2,0,30.8,0,29.9,0,52.8,0
2004/8/2,23:45:00,30.3,0,58.2,0,29.8,0,28.2,0,30.8,0,30,0,52.8,0
2004/8/3,0:00:00,30.3,0,58,0,29.8,0,28.2,0,30.8,0,30.1,0,52.8,0
2004/8/3,0:15:00,30.3,0,57.8,0,29.8,0,28.3,0,30.7,0,30.1,0,52.7,0
2004/8/3,0:30:00,30.3,0,57.6,0,29.7,0,28.3,0,30.6,0,30.1,0,52.6,0
2004/8/3,0:45:00,30.4,0,57.4,0,29.7,0,28.3,0,30.6,0,30.2,0,52.5,0
2004/8/3,1:00:00,30.3,0,57.3,0,29.6,0,28.3,0,30.5,0,30.2,0,52.5,0
2004/8/3,1:15:00,30.3,0,57.1,0,29.6,0,28.3,0,30.4,0,30.2,0,52.4,0
2004/8/3,1:30:00,30.3,0,57,0,29.5,0,28.3,0,30.3,0,30.3,0,52.4,0
2004/8/3,1:45:00,30.3,0,57.1,0,29.5,0,28.4,0,30.2,0,30.3,0,52.3,0
2004/8/3,2:00:00,30.4,0,57,0,29.5,0,28.4,0,30.2,0,30.3,0,52.4,0
2004/8/3,2:15:00,30.4,0,57,0,29.4,0,28.4,0,30.1,0,30.4,0,52.3,0
2004/8/3,2:30:00,30.4,0,57,0,29.4,0,28.4,0,30.2,0,30.4,0,52.3,0
2004/8/3,2:45:00,30.3,0,56.9,0,29.4,0,28.4,0,30.2,0,30.4,0,52.3,0
2004/8/3,3:00:00,30.3,0,56.8,0,29.3,0,28.4,0,30.1,0,30.4,0,52.3,0
2004/8/3,3:15:00,30.3,0,56.6,0,29.3,0,28.4,0,30,0,30.4,0,52.2,0
2004/8/3,3:30:00,30.3,0,56.5,0,29.3,0,28.5,0,29.9,0,30.4,0,52.1,0
2004/8/3,3:45:00,30.3,0,56.5,0,29.2,0,28.5,0,29.7,0,30.4,0,52.1,0
2004/8/3,4:00:00,30.2,0,56.4,0,29.2,0,28.5,0,29.6,0,30.4,0,52,0
2004/8/3,4:15:00,30.2,0,56.4,0,29.2,0,28.5,0,29.6,0,30.4,0,51.9,0
2004/8/3,4:30:00,30.2,0,56.3,0,29.2,0,28.5,0,29.5,0,30.4,0,51.9,0
2004/8/3,4:45:00,30.1,0,56.2,0,29.1,0,28.5,0,29.4,0,30.4,0,51.9,0
2004/8/3,5:00:00,30.1,0,56.2,0,29.1,0,28.5,0,29.3,0,30.4,0,51.8,0
2004/8/3,5:15:00,30.1,0,56.1,0,29.1,0,28.5,0,29.2,0,30.4,0,51.8,0
2004/8/3,5:30:00,30,0,56.1,0,29,0,28.5,0,29.2,0,30.4,0,51.7,0
2004/8/3,5:45:00,29.9,0,55,0,29,0,28.5,0,29.4,0,30.4,0,51.7,0
2004/8/3,6:00:00,29.8,0,54.4,0,29,0,28.5,0,29.5,0,30.4,0,51.6,0
2004/8/3,6:15:00,29.8,0,54.5,0,28.9,0,28,0,29.6,0,30.3,0,51.4,0
2004/8/3,6:30:00,29.7,0,54.5,0,28.9,0,28,0,29.6,0,30.3,0,51,0
2004/8/3,6:45:00,29.8,0,55,0,28.8,0,28,0,29.7,0,30.3,0,50.9,0
2004/8/3,7:00:00,29.9,0,55.9,0,28.7,0,28,0,29.8,0,30.3,0,51.1,0
2004/8/3,7:15:00,29.9,0,56.5,0,28.7,0,28.1,0,29.9,0,30.3,0,51.3,0
2004/8/3,7:30:00,29.7,0,55.3,0,28.6,0,28.1,0,30,0,30.3,0,51.4,0
2004/8/3,7:45:00,29.2,0,53.6,0,28.6,0,28.1,0,30.3,0,29.9,0,47.2,0
2004/8/3,8:00:00,29,0,51.6,0,28.7,0,28.1,0,30.4,0,29.4,0,45.2,0
2004/8/3,8:15:00,29.1,0,50.1,0,28.7,0,28.1,0,30,0,29.1,0,44.3,0
2004/8/3,8:30:00,29.1,0,49,0,28.7,0,28.1,0,29.9,0,28.7,0,43.6,0
2004/8/3,8:45:00,29,0,48.7,0,28.8,0,28.1,0,29.8,0,28.4,0,43.8,0
2004/8/3,9:00:00,29,0,48.2,0,28.8,0,28.1,0,29.6,0,28.2,0,43.8,0
2004/8/3,9:15:00,28.5,0,46.4,0,28.9,0,28.1,0,29.6,0,28,0,42.8,0
2004/8/3,9:30:00,28.4,0,44.8,0,29,0,28.1,0,29.6,0,27.8,0,42.1,0
2004/8/3,9:45:00,28.4,0,43.7,0,29,0,28.1,0,29.6,0,27.6,0,41.6,0
2004/8/3,10:00:00,28.3,0,43.2,0,29,0,27.8,0,29.5,0,27.4,0,41,0
2004/8/3,10:15:00,28.2,0,43.7,0,29.1,0,27.8,0,29.5,0,27.3,0,41.3,0
2004/8/3,10:30:00,28.2,0,44.2,0,29.1,0,27.8,0,29.4,0,27.1,0,41.5,0
2004/8/3,10:45:00,28.2,0,45.1,0,29.1,0,27.8,0,29.3,0,27,0,41.9,0
2004/8/3,11:00:00,28.9,0,47.2,0,29.2,0,27.9,0,29.4,0,27.4,0,46.2,0
2004/8/3,11:15:00,29.2,0,48.2,0,29.2,0,27.9,0,29.6,0,27.9,0,47.5,0
2004/8/3,11:30:00,28.5,0,47.5,0,29.3,0,27.9,0,29.7,0,27.9,0,44.7,0
2004/8/3,11:45:00,28.4,0,46.1,0,29.3,0,27.9,0,30,0,27.7,0,43.9,0
2004/8/3,12:00:00,28.4,0,46.1,0,29.3,0,27.9,0,30.1,0,27.6,0,43.6,0
2004/8/3,12:15:00,28.4,0,46.6,0,29.3,0,27.9,0,30.1,0,27.6,0,43.8,0
2004/8/3,12:30:00,27.9,0,46.1,0,29.3,0,27.9,0,30.2,0,27.4,0,43,0
2004/8/3,12:45:00,27.9,0,45.8,0,29.3,0,27.9,0,30.2,0,27.3,0,42.4,0
2004/8/3,13:00:00,27.9,0,44.3,0,29.4,0,28,0,30.1,0,27.1,0,41.8,0
2004/8/3,13:15:00,27.9,0,44.3,0,29.4,0,28,0,29.9,0,26.9,0,41.7,0
2004/8/3,13:30:00,27.8,0,44.1,0,29.4,0,28,0,29.8,0,26.8,0,41.7,0
2004/8/3,13:45:00,27.9,0,45.6,0,29.4,0,28,0,29.8,0,26.8,0,42.2,0
2004/8/3,14:00:00,28.1,0,47.8,0,29.4,0,28,0,29.8,0,26.9,0,44.8,0
2004/8/3,14:15:00,28.1,0,48.6,0,29.4,0,28,0,29.7,0,27,0,45.5,0
2004/8/3,14:30:00,28.7,0,48.6,0,29.4,0,28.1,0,29.8,0,27.3,0,47.6,0
2004/8/3,14:45:00,29.1,0,49.1,0,29.4,0,28.1,0,30,0,27.7,0,48.6,0
2004/8/3,15:00:00,29.3,0,49.6,0,29.5,0,28.1,0,30.1,0,28.1,0,48.7,0
2004/8/3,15:15:00,29.5,0,50.1,0,29.5,0,28.1,0,30.3,0,28.4,0,49,0
2004/8/3,15:30:00,29.6,0,50.5,0,29.5,0,28.1,0,30.4,0,28.6,0,48.8,0
2004/8/3,15:45:00,29.8,0,50.9,0,29.5,0,28.1,0,30.6,0,28.9,0,48.9,0
2004/8/3,16:00:00,29.9,0,51.2,0,29.5,0,28.1,0,30.7,0,29.1,0,48.9,0
2004/8/3,16:15:00,30,0,51.6,0,29.6,0,28.2,0,30.8,0,29.3,0,49.2,0
2004/8/3,16:30:00,30.2,0,52.1,0,29.6,0,28.2,0,30.8,0,29.6,0,49.4,0
2004/8/3,16:45:00,30.3,0,52.7,0,29.6,0,28.2,0,30.9,0,29.8,0,49.6,0
2004/8/3,17:00:00,30.4,0,53.7,0,29.7,0,28.2,0,30.9,0,30.3,0,49.1,0
2004/8/3,17:15:00,30.5,0,54.4,0,29.7,0,28.3,0,30.9,0,30.3,0,49.4,0
2004/8/3,17:30:00,30.5,0,54.9,0,29.7,0,28.3,0,30.9,0,30.4,0,49.8,0
2004/8/3,17:45:00,30.6,0,55.2,0,29.7,0,28.3,0,30.9,0,30.5,0,50,0
2004/8/3,18:00:00,30.7,0,56.1,0,29.8,0,28.3,0,30.8,0,30.5,0,50.3,0
2004/8/3,18:15:00,30.8,0,56.4,0,29.8,0,28.3,0,30.8,0,30.6,0,50.6,0
2004/8/3,18:30:00,30.9,0,56.5,0,29.8,0,28.4,0,30.8,0,30.6,0,51,0
2004/8/3,18:45:00,30.9,0,56.8,0,29.8,0,28.4,0,30.8,0,30.7,0,51.3,0
2004/8/3,19:00:00,31,0,57.1,0,29.8,0,28.4,0,30.7,0,30.7,0,51.4,0
2004/8/3,19:15:00,31,0,57,0,29.8,0,28.5,0,30.7,0,30.8,0,51.9,0
2004/8/3,19:30:00,31.1,0,57.2,0,29.8,0,28.5,0,31.4,0,30.8,0,52.1,0
2004/8/3,19:45:00,31.1,0,59.5,0,29.8,0,28.2,0,31.3,0,30.9,0,52.2,0
2004/8/3,20:00:00,31,0,60.9,0,29.8,0,28.2,0,30.8,0,30.9,0,52.6,0
2004/8/3,20:15:00,31,0,61,0,29.7,0,28.3,0,30.5,0,30.9,0,52.9,0
2004/8/3,20:30:00,31,0,60.9,0,29.8,0,28.3,0,30.7,0,31,0,53.2,0
2004/8/3,20:45:00,30.8,0,60.2,0,29.8,0,28.3,0,30.8,0,31,0,53.8,0
2004/8/3,21:00:00,29.4,0,57.2,0,29.7,0,28.3,0,30.9,0,30.7,0,49.4,0
2004/8/3,21:15:00,29.3,0,53.6,0,29.6,0,28.3,0,30.8,0,30.2,0,47.1,0
2004/8/3,21:30:00,28.9,0,51.7,0,29.6,0,28.4,0,30.7,0,29.8,0,45.2,0
2004/8/3,21:45:00,28.6,0,50.6,0,29.5,0,28.4,0,30.6,0,29.4,0,43.8,0
2004/8/3,22:00:00,28.4,0,48.9,0,29.5,0,28.5,0,30.3,0,29,0,42.7,0
2004/8/3,22:15:00,28.2,0,49,0,29.4,0,28.5,0,30.1,0,28.6,0,42.4,0
2004/8/3,22:30:00,27.8,0,48.3,0,29.4,0,28.5,0,29.9,0,28.3,0,42.4,0
2004/8/3,22:45:00,27.5,0,47.3,0,29.4,0,28.5,0,29.6,0,28,0,41.7,0
2004/8/3,23:00:00,27.7,0,50.8,0,29.3,0,28.5,0,29.5,0,27.9,0,44.3,0
2004/8/3,23:15:00,27.7,0,52.7,0,29.3,0,28.4,0,29.4,0,27.8,0,45.1,0
2004/8/3,23:30:00,27.7,0,54.1,0,29.3,0,28.4,0,29.3,0,27.8,0,46.8,0
2004/8/3,23:45:00,28.5,0,53.3,0,29.2,0,28.4,0,29.3,0,27.9,0,48.1,0
2004/8/4,0:00:00,28.8,0,53.5,0,29.1,0,28.4,0,29.4,0,28.1,0,49.1,0
2004/8/4,0:15:00,28.9,0,53.8,0,29.1,0,28.5,0,29.4,0,28.3,0,49.8,0
2004/8/4,0:30:00,29.1,0,54.4,0,29,0,28.5,0,29.4,0,28.5,0,50.1,0
2004/8/4,0:45:00,29.1,0,54.9,0,29,0,28.5,0,29.4,0,28.6,0,50.4,0
2004/8/4,1:00:00,29.2,0,55.4,0,29,0,28.5,0,29.4,0,28.9,0,50.8,0
2004/8/4,1:15:00,29.3,0,55.7,0,29,0,28.5,0,29.4,0,28.9,0,50.9,0
2004/8/4,1:30:00,29.3,0,56.1,0,29,0,28.5,0,29.4,0,29.1,0,51.1,0
2004/8/4,1:45:00,29.4,0,56.5,0,28.9,0,28.5,0,29.4,0,29.1,0,51.2,0
2004/8/4,2:00:00,29.4,0,56.9,0,28.9,0,28.5,0,29.5,0,29.3,0,51.4,0
2004/8/4,2:15:00,29.5,0,57.3,0,28.8,0,28.5,0,29.5,0,29.3,0,51.6,0
2004/8/4,2:30:00,29.5,0,57.6,0,28.7,0,28.6,0,29.6,0,29.4,0,51.8,0
2004/8/4,2:45:00,29.5,0,57.8,0,28.7,0,28.6,0,29.6,0,29.4,0,51.8,0
2004/8/4,3:00:00,29.6,0,57.9,0,28.7,0,28.6,0,29.6,0,29.5,0,51.9,0
2004/8/4,3:15:00,29.6,0,57.8,0,28.7,0,28.6,0,29.6,0,29.5,0,51.9,0
2004/8/4,3:30:00,29.6,0,57.8,0,28.6,0,28.6,0,29.6,0,29.6,0,51.8,0
2004/8/4,3:45:00,29.6,0,57.8,0,28.6,0,28.6,0,29.5,0,29.6,0,51.8,0
2004/8/4,4:00:00,29.6,0,57.9,0,28.5,0,28.6,0,29.5,0,29.6,0,51.8,0
2004/8/4,4:15:00,29.6,0,58.1,0,28.5,0,28.6,0,29.5,0,29.6,0,51.8,0
2004/8/4,4:30:00,29.6,0,58.1,0,28.5,0,28.6,0,29.5,0,29.7,0,51.8,0
2004/8/4,4:45:00,29.6,0,59.6,0,28.5,0,28.1,0,29.5,0,29.7,0,51.8,0
2004/8/4,5:00:00,29.5,0,63,0,28.4,0,28.1,0,29.5,0,29.7,0,51.9,0
2004/8/4,5:15:00,29.5,0,63.9,0,28.4,0,28.1,0,29.5,0,29.7,0,52.2,0
2004/8/4,5:30:00,29.5,0,64.6,0,28.4,0,28.1,0,29.5,0,29.8,0,52.5,0
2004/8/4,5:45:00,29.4,0,65.3,0,28.4,0,27.9,0,29.4,0,29.8,0,53.3,0
2004/8/4,6:00:00,29.4,0,65,0,28.4,0,27.9,0,29.4,0,29.8,0,53.3,0
2004/8/4,6:15:00,29.4,0,65.6,0,28.3,0,28,0,29.4,0,29.8,0,53.3,0
2004/8/4,6:30:00,29.4,0,66.4,0,28.4,0,28,0,29.4,0,29.8,0,53.4,0
2004/8/4,6:45:00,29.4,0,67.8,0,28.3,0,28,0,29.4,0,29.8,0,53.6,0
2004/8/4,7:00:00,29.4,0,67,0,28.4,0,28,0,29.4,0,29.9,0,53.8,0
2004/8/4,7:15:00,29.4,0,67,0,28.4,0,28,0,29.4,0,29.9,0,53.9,0
2004/8/4,7:30:00,29.4,0,67.7,0,28.4,0,28,0,29.5,0,29.9,0,54.3,0
2004/8/4,7:45:00,29.5,0,67,0,28.5,0,28,0,30.1,0,29.9,0,54.4,0
2004/8/4,8:00:00,29.6,0,66.9,0,28.6,0,28,0,30,0,29.9,0,54.6,0
2004/8/4,8:15:00,29.7,0,65.5,0,28.8,0,28,0,30,0,30,0,54.8,0
2004/8/4,8:30:00,29.8,0,64.2,0,29,0,28,0,30,0,30.1,0,54.9,0
2004/8/4,8:45:00,29.1,0,61.2,0,29,0,28,0,30,0,29.9,0,52.8,0
2004/8/4,9:00:00,28.9,0,58.3,0,29,0,28,0,29.7,0,29.5,0,49.9,0
2004/8/4,9:15:00,28.6,0,54.9,0,29,0,27.8,0,29.4,0,29.1,0,47.8,0
2004/8/4,9:30:00,28.1,0,54.1,0,29.1,0,27.8,0,29.4,0,28.6,0,46.4,0
2004/8/4,9:45:00,28.5,0,53.6,0,29.3,0,27.8,0,29.4,0,28.3,0,46.9,0
2004/8/4,10:00:00,28.4,0,53.5,0,29.5,0,27.8,0,29.2,0,28.1,0,47.1,0
2004/8/4,10:15:00,28.6,0,55.6,0,29.7,0,27.8,0,29.3,0,28.1,0,48.8,0
2004/8/4,10:30:00,28.4,0,54.9,0,29.8,0,27.8,0,29.5,0,28.1,0,49.3,0
2004/8/4,10:45:00,28.3,0,54.4,0,30,0,27.8,0,29.5,0,27.9,0,47.9,0
2004/8/4,11:00:00,28.7,0,53.1,0,30.1,0,27.9,0,29.6,0,27.8,0,47.5,0
2004/8/4,11:15:00,28.4,0,53.5,0,30,0,27.9,0,29.6,0,27.7,0,47.4,0
2004/8/4,11:30:00,28.3,0,51.1,0,29.4,0,28,0,29.5,0,27.6,0,46.8,0
2004/8/4,11:45:00,28.1,0,49.1,0,29.4,0,28,0,29.5,0,27.4,0,45.7,0
2004/8/4,12:00:00,28.1,0,48,0,29.5,0,28,0,29.4,0,27.3,0,44.9,0
2004/8/4,12:15:00,28.9,0,48.8,0,29.5,0,28,0,29.4,0,27.6,0,48.4,0
2004/8/4,12:30:00,29.2,0,50.4,0,29.5,0,28,0,29.6,0,28,0,50.7,0
2004/8/4,12:45:00,29.5,0,52,0,29.5,0,28,0,29.9,0,28.4,0,51.4,0
2004/8/4,13:00:00,29.7,0,52.8,0,29.6,0,28,0,30.1,0,28.7,0,52,0
2004/8/4,13:15:00,29.9,0,53.5,0,29.6,0,28,0,30.3,0,29,0,52.2,0
2004/8/4,13:30:00,30.1,0,54.1,0,29.6,0,28.1,0,30.5,0,29.3,0,52.6,0
2004/8/4,13:45:00,30.4,0,56.5,0,29.7,0,28.1,0,31.9,0,29.5,0,53.3,0
2004/8/4,14:00:00,30.6,0,57.9,0,29.8,0,28.1,0,31.9,0,29.8,0,54.6,0
2004/8/4,14:15:00,30.8,0,59.5,0,29.9,0,28.1,0,31.7,0,30,0,55.1,0
2004/8/4,14:30:00,31,0,59.7,0,30,0,28.1,0,31.7,0,30.2,0,55.8,0
2004/8/4,14:45:00,31.1,0,59.9,0,30.1,0,28.1,0,31.8,0,30.4,0,56,0
2004/8/4,15:00:00,31.1,0,59.7,0,30.2,0,28.2,0,31.9,0,30.6,0,56.4,0
2004/8/4,15:15:00,29.8,0,58,0,30.2,0,28.2,0,31.6,0,30.5,0,52.8,0
2004/8/4,15:30:00,29.6,0,54.8,0,30.3,0,28.2,0,31.6,0,30.2,0,50.4,0
2004/8/4,15:45:00,29.4,0,52.6,0,30.3,0,28.3,0,31.4,0,29.9,0,47.9,0
2004/8/4,16:00:00,29.2,0,50.5,0,30.3,0,28.4,0,31.3,0,29.6,0,46.4,0
2004/8/4,16:15:00,29.1,0,50,0,30.4,0,28.4,0,31.1,0,29.4,0,45.4,0
2004/8/4,16:30:00,28.9,0,49.4,0,30.4,0,28.4,0,31,0,29.2,0,44.7,0
2004/8/4,16:45:00,28.7,0,48.8,0,30.4,0,28.4,0,30.8,0,29.1,0,44.1,0
2004/8/4,17:00:00,28.5,0,48.5,0,30.4,0,28.5,0,30.7,0,29.1,0,43.2,0
2004/8/4,17:15:00,28.2,0,49.1,0,30.4,0,28.5,0,30.7,0,28.8,0,43.3,0
2004/8/4,17:30:00,28.3,0,52.6,0,30.3,0,28.5,0,30.9,0,28.6,0,45,0
2004/8/4,17:45:00,28.5,0,53.7,0,30.3,0,28.5,0,30.7,0,28.5,0,47,0